EW5925 Weather Reports


time (UTC)temp
C
wind
direction
speed
KPH
gust
KPH
rain 1hr
cm
rain 24hr
cm
rain mn
cm
humidity
%
barometer
mb
20260902224553 18 310 3.2 9.7 0.00 0.00 0.00 81 1021.4
20260902224036 18 336 3.2 9.7 0.00 0.00 0.00 83 1021.5
20260902223536 18 6 1.6 8.0 0.00 0.00 0.00 85 1021.5
20260902223257 17 315 1.6 8.0 0.00 0.00 0.00 87 1021.5
20260902222534 17 219 1.6 8.0 0.00 0.00 0.00 89 1021.5
20260902222250 16 258 0.0 4.8 0.00 0.00 0.00 91 1021.5
20260902221532 16 258 1.6 4.8 0.00 0.00 0.00 93 1021.4
20260902221033 15 251 1.6 4.8 0.00 0.00 0.00 93 1021.3
20260902220533 15 251 0.0 4.8 0.00 0.00 0.00 94 1021.3
20260902220030 15 245 0.0 6.4 0.00 0.00 0.00 94 1021.2
20260902215530 14 245 0.0 6.4 0.00 0.00 0.00 94 1021.1
20260902215030 14 245 1.6 6.4 0.00 0.00 0.00 94 1021.1
20260902214525 14 245 0.0 6.4 0.00 0.00 0.00 94 1021.1
20260902214022 13 342 0.0 3.2 0.00 0.00 0.00 94 1021.3
20260902213532 13 342 0.0 3.2 0.00 0.00 0.00 94 1021.3
20260902213021 13 342 0.0 3.2 0.00 0.00 0.00 94 1021.3
20260902212507 13 342 0.0 1.6 0.00 0.00 0.00 93 1021.3
20260902212020 12 342 0.0 3.2 0.00 0.00 0.00 93 1021.3
20260902211733 12 342 0.0 3.2 0.00 0.00 0.00 93 1021.3
20260902211228 12 342 0.0 0.0 0.00 0.00 0.00 93 1021.3
20260902210503 12 342 0.0 0.0 0.00 0.00 0.00 92 1021.2
20260902210000 11 342 0.0 0.0 0.00 0.00 0.00 92 1021.1
20260902205459 11 342 0.0 0.0 0.00 0.00 0.00 92 1021.1
20260902205001 11 342 0.0 0.0 0.00 0.00 0.00 92 1021.0
20260902204458 11 342 0.0 0.0 0.00 0.00 0.00 91 1020.9
20260902203957 11 342 0.0 0.0 0.00 0.00 0.00 91 1020.8
20260902203500 11 342 0.0 0.0 0.00 0.00 0.00 91 1020.7
20260902202952 11 342 0.0 0.0 0.00 0.00 0.00 91 1020.6
20260902202450 11 342 0.0 0.0 0.00 0.00 0.00 91 1020.6
20260902202205 11 342 0.0 0.0 0.00 0.00 0.00 91 1020.6
20260902201449 11 342 0.0 0.0 0.00 0.00 0.00 91 1020.5
20260902201149 11 342 0.0 0.0 0.00 0.00 0.00 91 1020.5
20260902200429 11 342 0.0 0.0 0.00 0.00 0.00 90 1020.5
20260902195902 11 342 0.0 1.6 0.00 0.00 0.00 90 1020.4
20260902195623 11 342 0.0 1.6 0.00 0.00 0.00 90 1020.4
20260902194902 11 342 0.0 1.6 0.00 0.00 0.00 90 1020.4
20260902194359 11 342 0.0 1.6 0.00 0.00 0.00 90 1020.3
20260902193859 11 342 0.0 1.6 0.00 0.00 0.00 90 1020.2
20260902193623 11 342 0.0 1.6 0.00 0.00 0.00 90 1020.2
20260902192858 11 342 0.0 1.6 0.00 0.00 0.00 90 1020.1
20260902192356 11 342 0.0 0.0 0.00 0.00 0.00 90 1020.1
20260902192113 11 342 0.0 0.0 0.00 0.00 0.00 90 1020.0
20260902191353 11 342 0.0 0.0 0.00 0.00 0.00 90 1020.0
20260902190845 11 342 0.0 0.0 0.00 0.00 0.00 90 1020.0
20260902190343 11 342 0.0 1.6 0.00 0.00 0.00 90 1020.0
20260902185842 11 342 0.0 1.6 0.00 0.00 0.00 90 1019.9
20260902185344 12 342 0.0 1.6 0.00 0.00 0.00 89 1019.8
20260902184817 12 342 0.0 3.2 0.00 0.00 0.00 89 1019.8
20260902184133 12 342 0.0 1.6 0.00 0.00 0.00 89 1019.8
20260902183626 12 342 0.0 1.6 0.00 0.00 0.00 89 1019.6
20260902183125 12 342 0.0 0.0 0.00 0.00 0.00 89 1019.6
20260902182622 12 342 0.0 0.0 0.00 0.00 0.00 89 1019.6
20260902182125 12 342 0.0 0.0 0.00 0.00 0.00 89 1019.7
20260902181614 12 342 0.0 0.0 0.00 0.00 0.00 89 1019.7
20260902181336 12 342 0.0 0.0 0.00 0.00 0.00 89 1019.7
20260902180611 12 342 0.0 0.0 0.00 0.00 0.00 88 1019.6
20260902180118 12 342 0.0 0.0 0.00 0.00 0.00 88 1019.5
20260902175608 12 342 0.0 0.0 0.00 0.00 0.00 88 1019.5
20260902175109 12 342 0.0 0.0 0.00 0.00 0.00 88 1019.6
20260902174604 12 342 0.0 0.0 0.00 0.00 0.00 88 1019.6
20260902174104 12 342 0.0 0.0 0.00 0.00 0.00 88 1019.6
20260902173555 13 342 0.0 0.0 0.00 0.00 0.00 88 1019.5
20260902173056 13 342 0.0 0.0 0.00 0.00 0.00 88 1019.5
20260902173033 13 342 0.0 0.0 0.00 0.00 0.00 88 1019.5
20260902172055 13 342 0.0 0.0 0.00 0.00 0.00 88 1019.5
20260902171529 13 342 0.0 1.6 0.00 0.00 0.00 88 1019.5
20260902171028 13 342 0.0 1.6 0.00 0.00 0.00 88 1019.4
20260902170525 13 342 0.0 0.0 0.00 0.00 0.00 88 1019.4
20260902170025 13 342 0.0 0.0 0.00 0.00 0.00 87 1019.5
20260902165522 13 342 0.0 0.0 0.00 0.00 0.00 87 1019.5
20260902165020 13 342 0.0 1.6 0.00 0.00 0.00 87 1019.5
20260902164737 13 342 0.0 1.6 0.00 0.00 0.00 87 1019.6
20260902164012 13 342 0.0 1.6 0.00 0.00 0.00 86 1019.7
20260902163512 14 342 0.0 1.6 0.00 0.00 0.00 86 1019.6
20260902163007 14 342 0.0 0.0 0.00 0.00 0.00 86 1019.7
20260902162506 14 342 0.0 0.0 0.00 0.00 0.00 86 1019.7
20260902162005 14 342 0.0 0.0 0.00 0.00 0.00 86 1019.8
20260902161502 14 342 0.0 0.0 0.00 0.00 0.00 85 1019.8
20260902161004 15 342 0.0 0.0 0.00 0.00 0.00 85 1019.8
20260902160447 15 342 0.0 1.6 0.00 0.00 0.00 84 1019.9
20260902160427 15 342 0.0 1.6 0.00 0.00 0.00 84 1019.8
20260902155657 15 342 0.0 0.0 0.00 0.00 0.00 84 1019.8
20260902154937 15 342 0.0 1.6 0.00 0.00 0.00 84 1019.9
20260902154435 15 342 0.0 1.6 0.00 0.00 0.00 84 1019.9
20260902153934 15 342 0.0 0.0 0.00 0.00 0.00 83 1019.9
20260902153432 15 342 0.0 0.0 0.00 0.00 0.00 83 1020.1
20260902152930 16 342 0.0 0.0 0.00 0.00 0.00 83 1020.2
20260902152427 16 342 0.0 0.0 0.00 0.00 0.00 83 1020.3
20260902152144 16 342 0.0 0.0 0.00 0.00 0.00 83 1020.3
20260902151425 16 342 0.0 1.6 0.00 0.00 0.00 82 1020.3
20260902150921 16 342 0.0 1.6 0.00 0.00 0.00 82 1020.3
20260902150420 16 342 0.0 0.0 0.00 0.00 0.00 82 1020.3
20260902150135 16 342 0.0 1.6 0.00 0.00 0.00 82 1020.3
20260902145411 16 342 0.0 1.6 0.00 0.00 0.00 82 1020.3
20260902144909 17 342 0.0 1.6 0.00 0.00 0.00 81 1020.3
20260902144411 17 342 0.0 0.0 0.00 0.00 0.00 81 1020.3
20260902143844 17 342 0.0 0.0 0.00 0.00 0.00 82 1020.3
20260902143331 17 342 0.0 0.0 0.00 0.00 0.00 82 1020.3
20260902142829 17 342 0.0 3.2 0.00 0.00 0.00 82 1020.3
20260902142328 17 342 0.0 3.2 0.00 0.00 0.00 82 1020.4
20260902142055 17 342 1.6 6.4 0.00 0.00 0.00 82 1020.4
20260902141549 17 342 3.2 8.0 0.00 0.00 0.00 82 1020.4
20260902140832 17 342 3.2 8.0 0.00 0.00 0.00 82 1020.4
20260902140317 17 342 3.2 8.0 0.00 0.00 0.00 82 1020.4
20260902140302 17 342 3.2 8.0 0.00 0.00 0.00 82 1020.4
20260902135314 17 351 3.2 6.4 0.00 0.00 0.00 81 1020.4
20260902134814 17 349 1.6 6.4 0.00 0.00 0.00 81 1020.4
20260902134318 18 349 1.6 6.4 0.00 0.00 0.00 81 1020.4
20260902133804 18 343 1.6 6.4 0.00 0.00 0.00 80 1020.5
20260902133302 18 339 1.6 8.0 0.00 0.03 0.00 80 1020.4
20260902132803 18 339 3.2 8.0 0.00 0.03 0.00 80 1020.6
20260902132234 18 338 3.2 8.0 0.00 0.03 0.00 79 1020.6
20260902131711 18 317 3.2 9.7 0.00 0.03 0.00 79 1020.6
20260902131438 18 357 4.8 9.7 0.00 0.03 0.00 79 1020.6
20260902130657 18 10 4.8 11.3 0.00 0.03 0.00 79 1020.6
20260902130208 18 355 3.2 11.3 0.00 0.03 0.00 79 1020.6
20260902125654 18 349 4.8 12.9 0.00 0.03 0.00 79 1020.6
20260902125154 18 3 6.4 12.9 0.00 0.03 0.00 79 1020.6
20260902124654 18 4 4.8 14.5 0.00 0.03 0.00 79 1020.7
20260902124151 18 1 4.8 14.5 0.00 0.03 0.00 80 1020.8
20260902123651 18 6 4.8 16.1 0.00 0.03 0.00 80 1020.8
20260902123152 18 295 6.4 16.1 0.00 0.03 0.00 81 1020.8
20260902122645 18 0 6.4 17.7 0.00 0.03 0.00 81 1020.8
20260902122143 18 342 6.4 17.7 0.00 0.03 0.00 81 1020.8
20260902121641 18 334 6.4 12.9 0.00 0.03 0.00 82 1020.8
20260902121144 18 335 6.4 11.3 0.00 0.03 0.00 82 1020.8
20260902120621 18 337 6.4 19.3 0.00 0.03 0.00 83 1020.7
20260902120108 18 346 6.4 19.3 0.00 0.03 0.00 83 1020.7
20260902115558 18 345 6.4 14.5 0.00 0.03 0.00 83 1020.8
20260902115052 18 309 6.4 14.5 0.00 0.03 0.00 84 1020.8
20260902114550 18 353 6.4 14.5 0.00 0.03 0.00 84 1020.8
20260902114047 18 328 4.8 11.3 0.00 0.03 0.00 83 1020.8
20260902113548 18 358 4.8 14.5 0.00 0.03 0.00 83 1020.8
20260902113046 18 349 4.8 17.7 0.00 0.03 0.00 83 1020.8
20260902112548 18 4 4.8 17.7 0.00 0.03 0.00 83 1020.7
20260902112043 18 10 4.8 11.3 0.00 0.03 0.00 83 1020.7
20260902111544 18 337 3.2 9.7 0.00 0.03 0.00 83 1020.8
20260902111044 18 5 3.2 8.0 0.00 0.03 0.00 83 1020.8
20260902110541 18 357 4.8 9.7 0.00 0.03 0.00 83 1020.9
20260902110054 18 313 4.8 9.7 0.00 0.03 0.00 83 1020.8
20260902105543 18 326 3.2 8.0 0.00 0.03 0.00 83 1020.8
20260902105018 18 15 1.6 6.4 0.00 0.03 0.00 83 1020.7
20260902104452 18 10 3.2 9.7 0.00 0.03 0.00 83 1020.8
20260902104147 18 2 3.2 9.7 0.00 0.03 0.00 83 1020.7
20260902103355 18 324 3.2 8.0 0.00 0.03 0.00 83 1020.6
20260902102827 18 347 3.2 8.0 0.00 0.03 0.00 83 1020.5
20260902102307 18 347 4.8 14.5 0.00 0.03 0.00 83 1020.4
20260902101740 18 10 4.8 14.5 0.00 0.03 0.00 83 1020.5
20260902101214 18 341 3.2 14.5 0.00 0.03 0.00 83 1020.5
20260902100122 18 353 3.2 9.7 0.00 0.03 0.00 82 1020.4
20260902095607 18 342 3.2 9.7 0.00 0.03 0.00 82 1020.4
20260902095025 18 351 4.8 9.7 0.00 0.03 0.00 82 1020.3
20260902094455 19 340 4.8 9.7 0.00 0.03 0.00 82 1020.3
20260902093944 19 354 4.8 9.7 0.00 0.03 0.00 83 1020.2
20260902093440 19 343 4.8 11.3 0.00 0.03 0.00 82 1020.2
20260902092947 19 338 4.8 11.3 0.00 0.03 0.00 82 1020.2
20260902092432 19 2 4.8 8.0 0.00 0.03 0.00 82 1020.2
20260902091925 19 340 4.8 12.9 0.00 0.03 0.00 82 1020.1
20260902091427 19 310 4.8 12.9 0.00 0.03 0.00 82 1020.1
20260902091144 19 341 4.8 14.5 0.00 0.03 0.00 82 1020.0
20260902090416 19 342 4.8 14.5 0.00 0.03 0.00 81 1020.1
20260902085915 19 353 4.8 12.9 0.00 0.03 0.00 81 1020.0
20260902085415 19 355 3.2 12.9 0.00 0.03 0.00 81 1020.0
20260902084914 19 30 3.2 9.7 0.00 0.03 0.00 81 1019.9
20260902084413 19 345 4.8 14.5 0.00 0.03 0.00 80 1019.9
20260902083913 19 23 4.8 14.5 0.00 0.03 0.00 80 1019.9
20260902083415 19 349 4.8 14.5 0.00 0.03 0.00 80 1019.8
20260902082859 20 2 4.8 12.9 0.00 0.03 0.00 80 1019.8
20260902082328 20 344 4.8 12.9 0.00 0.03 0.00 80 1019.8
20260902081830 20 355 4.8 12.9 0.00 0.03 0.00 79 1019.8
20260902081321 20 353 4.8 12.9 0.00 0.03 0.00 79 1019.7
20260902080819 20 339 6.4 12.9 0.00 0.03 0.00 78 1019.7
20260902080313 20 337 6.4 12.9 0.00 0.03 0.00 78 1019.6
20260902075811 20 327 6.4 14.5 0.00 0.03 0.00 77 1019.6
20260902075310 20 0 4.8 14.5 0.00 0.03 0.00 77 1019.5
20260902074807 20 29 4.8 17.7 0.00 0.03 0.00 76 1019.5
20260902074305 20 346 4.8 17.7 0.00 0.03 0.00 76 1019.4
20260902073803 20 353 6.4 17.7 0.00 0.03 0.00 75 1019.4
20260902073301 20 342 4.8 17.7 0.00 0.03 0.00 74 1019.4
20260902072801 21 26 4.8 9.7 0.00 0.03 0.00 73 1019.3
20260902072301 21 357 6.4 20.9 0.00 0.03 0.00 72 1019.2
20260902071759 21 0 8.0 20.9 0.00 0.03 0.00 72 1019.3
20260902071301 21 344 6.4 16.1 0.00 0.03 0.00 71 1019.2
20260902070759 21 10 4.8 16.1 0.00 0.03 0.00 70 1019.2
20260902070259 21 41 4.8 12.9 0.00 0.03 0.00 69 1019.1
20260902070025 21 358 6.4 16.1 0.00 0.03 0.00 69 1019.1
20260902065258 21 6 6.4 16.1 0.00 0.03 0.00 69 1019.1
20260902064759 21 328 3.2 11.3 0.00 0.03 0.00 69 1018.9
20260902064237 21 349 3.2 11.3 0.00 0.03 0.00 69 1019.0
20260902063738 22 43 4.8 14.5 0.00 0.03 0.00 67 1019.0
20260902063210 22 60 4.8 14.5 0.00 0.03 0.00 67 1018.9
20260902062657 22 47 3.2 12.9 0.00 0.03 0.00 66 1018.9
20260902062155 22 79 3.2 12.9 0.00 0.03 0.00 65 1018.9
20260902061655 22 19 4.8 12.9 0.00 0.03 0.00 64 1018.9
20260902061418 22 79 4.8 12.9 0.00 0.03 0.00 62 1018.9
20260902060655 23 46 3.2 11.3 0.00 0.03 0.00 61 1018.8
20260902060155 23 29 3.2 11.3 0.00 0.03 0.00 60 1018.8
20260902055653 23 341 3.2 11.3 0.00 0.03 0.00 60 1018.9
20260902055153 23 38 3.2 12.9 0.00 0.03 0.00 60 1018.9
20260902054654 23 63 4.8 16.1 0.00 0.03 0.00 59 1019.0
20260902054154 23 72 6.4 16.1 0.00 0.03 0.00 58 1019.1
20260902053654 23 13 6.4 16.1 0.00 0.03 0.00 58 1019.1
20260902053153 23 5 6.4 16.1 0.00 0.03 0.00 58 1019.2
20260902052653 23 84 6.4 16.1 0.00 0.03 0.00 57 1019.2
20260902052126 23 355 6.4 20.9 0.00 0.03 0.00 58 1019.2
20260902051626 23 339 6.4 20.9 0.00 0.03 0.00 58 1019.3
20260902051126 23 341 6.4 16.1 0.00 0.03 0.00 59 1019.3
20260902050852 23 66 6.4 16.1 0.00 0.03 0.00 59 1019.3
20260902050125 23 73 4.8 14.5 0.00 0.03 0.00 61 1019.3
20260902045846 23 29 4.8 16.1 0.00 0.03 0.00 60 1019.4
20260902045125 24 62 4.8 16.1 0.00 0.03 0.00 61 1019.4
20260902044841 24 59 4.8 14.5 0.00 0.03 0.00 61 1019.5
20260902044121 24 59 6.4 14.5 0.00 0.03 0.00 61 1019.5
20260902043620 24 51 6.4 16.1 0.00 0.03 0.00 60 1019.6
20260902043120 25 353 4.8 16.1 0.00 0.03 0.00 60 1019.6
20260902042622 25 57 4.8 14.5 0.00 0.03 0.00 60 1019.7
20260902042105 25 70 4.8 14.5 0.00 0.03 0.00 59 1019.7
20260902041605 25 347 4.8 12.9 0.00 0.03 0.00 59 1019.7
20260902041103 25 35 4.8 12.9 0.00 0.03 0.00 59 1019.8
20260902040602 25 22 4.8 12.9 0.00 0.03 0.00 59 1019.8
20260902040115 25 50 6.4 16.1 0.00 0.03 0.00 58 1019.9
20260902035601 25 38 6.4 19.3 0.00 0.03 0.00 56 1020.0
20260902035100 25 327 6.4 19.3 0.00 0.03 0.00 56 1020.0
20260902034601 25 341 6.4 17.7 0.00 0.03 0.00 56 1020.0
20260902034101 25 52 6.4 17.7 0.00 0.03 0.00 55 1020.1
20260902033600 25 351 8.0 16.1 0.00 0.03 0.00 53 1020.1
20260902033059 25 16 8.0 16.1 0.00 0.03 0.00 56 1020.2
20260902032553 25 66 8.0 16.1 0.00 0.03 0.00 53 1020.3
20260902032050 25 342 4.8 12.9 0.00 0.03 0.00 54 1020.4
20260902031549 25 66 4.8 12.9 0.00 0.03 0.00 54 1020.4
20260902031050 26 52 4.8 12.9 0.00 0.03 0.00 53 1020.5
20260902030534 26 20 4.8 12.9 0.00 0.03 0.00 54 1020.6
20260902030034 26 318 4.8 12.9 0.00 0.03 0.00 53 1020.7
20260902025506 25 49 4.8 12.9 0.00 0.03 0.00 55 1020.8
20260902025006 25 24 4.8 11.3 0.00 0.03 0.00 55 1020.9
20260902024503 25 55 3.2 11.3 0.00 0.03 0.00 55 1021.1
20260902024222 25 311 3.2 11.3 0.00 0.03 0.00 56 1021.2
20260902023458 25 31 3.2 11.3 0.00 0.03 0.00 55 1021.3
20260902022959 25 33 4.8 12.9 0.00 0.03 0.00 54 1021.4
20260902022459 25 2 4.8 14.5 0.00 0.03 0.00 54 1021.6
20260902022000 25 8 6.4 14.5 0.00 0.03 0.00 53 1021.6
20260902021457 26 43 4.8 11.3 0.00 0.03 0.00 54 1021.7
20260902020955 26 4 3.2 11.3 0.00 0.03 0.00 53 1021.7
20260902020453 26 29 3.2 8.0 0.00 0.03 0.00 55 1021.8
20260902020217 25 7 3.2 8.0 0.00 0.03 0.00 54 1021.8
20260902015452 25 343 4.8 9.7 0.00 0.03 0.00 54 1021.9
20260902014950 25 356 4.8 11.3 0.00 0.03 0.00 55 1022.1
20260902014448 25 333 4.8 12.9 0.00 0.03 0.00 54 1022.3
20260902013949 25 16 4.8 12.9 0.00 0.03 0.00 54 1022.5
20260902013932 25 335 4.8 14.5 0.00 0.03 0.00 54 1022.6
20260902012950 25 323 3.2 14.5 0.00 0.03 0.00 54 1022.8
20260902012434 25 2 1.6 8.0 0.00 0.03 0.00 53 1022.9
20260902011935 25 262 1.6 8.0 0.00 0.03 0.00 51 1023.0
20260902011418 25 264 1.6 8.0 0.00 0.03 0.00 54 1023.1
20260902010917 25 241 1.6 8.0 0.00 0.03 0.00 54 1023.3
20260902010423 24 216 3.2 8.0 0.00 0.03 0.00 55 1023.4
20260902005910 24 320 3.2 8.0 0.00 0.03 0.00 55 1023.5
20260902005407 24 333 3.2 9.7 0.00 0.03 0.00 57 1023.7
20260902004904 23 8 4.8 11.3 0.00 0.03 0.00 55 1023.7
20260902004403 23 345 3.2 11.3 0.00 0.03 0.00 56 1023.9
20260902003903 23 312 1.6 8.0 0.00 0.03 0.00 59 1024.0
20260902003358 23 251 1.6 8.0 0.00 0.03 0.00 60 1024.0
20260902002858 23 234 3.2 8.0 0.00 0.03 0.00 61 1024.1
20260902002350 22 238 3.2 9.7 0.00 0.03 0.00 61 1024.2
20260902001848 22 238 3.2 9.7 0.00 0.03 0.00 63 1024.2
20260902001346 22 239 3.2 9.7 0.00 0.03 0.00 63 1024.3
20260902001111 22 242 3.2 9.7 0.00 0.03 0.00 64 1024.3
20260902000325 22 222 3.2 8.0 0.00 0.03 0.00 66 1024.4
20260901235753 21 346 3.2 8.0 0.00 0.03 0.00 68 1024.5
20260901235258 21 247 1.6 8.0 0.00 0.03 0.00 69 1024.5
20260901234726 21 318 1.6 8.0 0.00 0.03 0.00 70 1024.6
20260901234425 21 306 3.2 8.0 0.00 0.03 0.00 72 1024.7
20260901233855 20 316 1.6 9.7 0.00 0.03 0.00 73 1024.8
20260901233107 20 353 1.6 8.0 0.00 0.03 0.00 75 1024.8
20260901232539 20 353 1.6 8.0 0.00 0.03 0.00 77 1024.8
20260901232011 19 225 1.6 8.0 0.00 0.03 0.00 79 1024.8
20260901231445 19 328 1.6 8.0 0.00 0.03 0.00 81 1024.8
20260901230931 19 245 1.6 4.8 0.00 0.03 0.00 83 1024.9
20260901230353 18 239 1.6 6.4 0.00 0.03 0.00 86 1024.9
20260901225829 18 226 1.6 6.4 0.00 0.03 0.00 87 1025.0
20260901225324 17 238 1.6 6.4 0.00 0.03 0.00 88 1025.1
20260901224824 17 278 3.2 6.4 0.00 0.03 0.00 90 1025.0